Location: Hains Lake
(37.8540°N, 99.8578°W)
Time: 19:54:08
(UTC+00:00)

Okean-O - Pass Details

Date: 11 December 2019
Orbit: 639 x 641 km, 98.2° (Epoch: 25 January)

Event Time Altitude Azimuth Distance (km) Brightness Sun altitude
Rises 13:06:27 0° 17° (NNE) 2,951 6.0 -7.6°
Reaches altitude 10° 13:08:42 10° 21° (NNE) 2,037 5.2 -7.2°
Maximum altitude 13:13:04 58° 100° (E) 750 3.4 -6.4°
Drops below altitude 10° 13:17:25 10° 180° (S) 2,022 5.5 -5.7°
Sets 13:19:38 0° 185° (S) 2,926 6.3 -5.3°
